EW6005 Weather Reports


Display with metric or nautical units.
time (UTC)temp
F
wind
direction
speed
MPH
gust
MPH
rain 1hr
in
rain 24hr
in
rain mn
in
humidity
%
barometer
mb
20260505124546 73 0 2.0 6.0 0.00 0.00 0.00 92 994.2
20260505124040 73 0 2.0 6.0 0.00 0.00 0.00 92 993.9
20260505123319 72 0 2.0 5.0 0.00 0.00 0.00 92 993.9
20260505122817 72 0 1.0 5.0 0.00 0.00 0.00 92 994.0
20260505122316 72 0 1.0 5.0 0.00 0.00 0.00 92 994.2
20260505121815 72 0 2.0 5.0 0.00 0.00 0.00 92 994.2
20260505121313 72 0 1.0 6.0 0.00 0.00 0.00 92 994.4
20260505120814 72 0 1.0 6.0 0.00 0.00 0.00 92 994.2
20260505120311 72 0 2.0 6.0 0.00 0.00 0.00 92 994.2
20260505120034 72 0 2.0 6.0 0.00 0.00 0.00 92 994.1
20260505115312 72 0 1.0 6.0 0.00 0.00 0.00 92 994.1
20260505114813 72 0 2.0 5.0 0.00 0.00 0.00 92 994.0
20260505114312 72 0 2.0 5.0 0.00 0.00 0.00 92 993.8
20260505113812 72 0 2.0 8.0 0.00 0.00 0.00 92 993.7
20260505113311 72 0 2.0 8.0 0.00 0.00 0.00 92 993.8
20260505112812 72 0 2.0 8.0 0.00 0.00 0.00 92 994.1
20260505112531 72 0 2.0 8.0 0.00 0.00 0.00 92 994.1
20260505112125 72 0 2.0 6.0 0.00 0.00 0.00 91 994.0
20260505110807 72 0 2.0 9.0 0.00 0.00 0.00 91 994.0
20260505110527 72 0 2.0 6.0 0.00 0.00 0.00 91 993.9
20260505101800 71 0 1.0 4.0 0.00 0.00 0.00 91 994.1
20260505101527 71 0 1.0 3.0 0.00 0.00 0.00 91 994.0
20260505100800 71 0 0.0 3.0 0.00 0.00 0.00 91 994.0
20260505100256 71 0 0.0 3.0 0.00 0.00 0.00 91 994.0
20260505095756 71 0 1.0 4.0 0.00 0.00 0.00 91 994.0
20260505095255 71 0 1.0 5.0 0.00 0.00 0.00 91 994.1
20260505094755 71 0 1.0 5.0 0.00 0.00 0.00 91 994.2
20260505094256 71 0 2.0 4.0 0.00 0.00 0.00 90 994.1
20260505093755 71 0 1.0 4.0 0.00 0.00 0.00 90 994.0
20260505093255 71 0 1.0 4.0 0.00 0.00 0.00 91 994.1
20260505092755 71 0 1.0 4.0 0.00 0.00 0.00 90 994.1
20260505092255 71 0 1.0 4.0 0.00 0.00 0.00 90 994.2
20260505091755 71 0 2.0 5.0 0.00 0.00 0.00 90 994.2
20260505091255 71 0 1.0 5.0 0.00 0.00 0.00 90 994.4
20260505090755 71 0 0.0 4.0 0.00 0.00 0.00 90 994.4
20260505090255 71 0 1.0 3.0 0.00 0.00 0.00 90 994.4
20260505090246 71 0 1.0 2.0 0.00 0.00 0.00 90 994.4
20260505085526 71 0 1.0 5.0 0.00 0.00 0.00 89 994.4
20260505084753 71 0 1.0 5.0 0.00 0.00 0.00 89 994.4
20260505084247 71 0 2.0 5.0 0.00 0.00 0.00 89 994.5
20260505083747 71 0 1.0 5.0 0.00 0.00 0.00 89 994.4
20260505083247 72 0 1.0 5.0 0.00 0.00 0.00 89 994.4
20260505083016 72 0 2.0 6.0 0.00 0.00 0.00 89 994.5
20260505082247 72 0 2.0 9.0 0.00 0.00 0.00 89 994.6
20260505081746 72 0 2.0 9.0 0.00 0.00 0.00 89 994.7
20260505081247 72 0 2.0 6.0 0.00 0.00 0.00 89 994.7
20260505081009 72 0 2.0 9.0 0.00 0.00 0.00 88 994.6
20260505080247 72 0 2.0 9.0 0.00 0.00 0.00 88 994.7
20260505075743 72 0 2.0 6.0 0.00 0.00 0.00 88 994.9
20260505075501 72 0 2.0 6.0 0.00 0.00 0.00 88 994.9
20260505074743 72 0 2.0 6.0 0.00 0.00 0.00 88 994.9
20260505074244 72 0 2.0 5.0 0.00 0.00 0.00 88 994.9
20260505074001 72 0 2.0 6.0 0.00 0.00 0.00 88 994.9
20260505073501 72 0 2.0 6.0 0.00 0.00 0.00 88 995.0
20260505072744 72 0 1.0 8.0 0.00 0.00 0.00 88 995.0
20260505072243 72 0 1.0 8.0 0.00 0.00 0.00 87 995.0
20260505072002 72 0 1.0 4.0 0.00 0.00 0.00 87 995.1
20260505071506 72 0 1.0 5.0 0.00 0.00 0.00 87 995.2
20260505070739 72 0 2.0 9.0 0.00 0.00 0.00 87 995.3
20260505070240 72 0 1.0 9.0 0.00 0.00 0.00 87 995.2
20260505065739 72 0 1.0 5.0 0.00 0.00 0.00 87 995.2
20260505065238 72 0 1.0 8.0 0.00 0.00 0.00 87 995.3
20260505064739 72 0 2.0 8.0 0.00 0.00 0.00 87 995.4
20260505064500 72 0 1.0 5.0 0.00 0.00 0.00 86 995.5
20260505063742 72 0 0.0 3.0 0.00 0.00 0.00 86 995.4
20260505063236 72 0 1.0 3.0 0.00 0.00 0.00 86 995.4
20260505062733 72 0 1.0 6.0 0.00 0.00 0.00 86 995.5
20260505062231 72 0 1.0 6.0 0.00 0.00 0.00 86 995.7
20260505061732 72 0 2.0 6.0 0.00 0.00 0.00 86 995.6
20260505061231 72 0 2.0 6.0 0.00 0.00 0.00 86 995.6
20260505060731 72 0 2.0 5.0 0.00 0.00 0.00 85 995.7
20260505060230 72 0 2.0 5.0 0.00 0.00 0.00 85 995.7
20260505055950 72 0 1.0 4.0 0.00 0.00 0.00 85 995.7
20260505055229 72 0 1.0 5.0 0.00 0.00 0.00 85 995.6
20260505054730 72 0 1.0 5.0 0.00 0.00 0.00 85 995.6
20260505054220 72 0 1.0 6.0 0.00 0.00 0.00 85 995.6
20260505053711 72 0 2.0 6.0 0.00 0.00 0.00 84 995.8
20260505053211 72 0 1.0 6.0 0.00 0.00 0.00 84 995.9
20260505052710 72 0 1.0 5.0 0.00 0.00 0.00 84 996.0
20260505052431 72 0 1.0 5.0 0.00 0.00 0.00 84 996.0
20260505051707 72 0 1.0 4.0 0.00 0.00 0.00 84 996.1
20260505051205 72 0 2.0 5.0 0.00 0.00 0.00 83 996.1
20260505050705 72 0 2.0 6.0 0.00 0.00 0.00 83 996.2
20260505050701 73 0 2.0 6.0 0.00 0.00 0.00 83 996.2
20260505041656 73 0 2.0 9.0 0.00 0.00 0.00 81 996.1
20260505041156 73 0 2.0 9.0 0.00 0.00 0.00 81 996.1
20260505040656 74 0 2.0 8.0 0.00 0.00 0.00 81 996.0
20260505040152 74 0 2.0 6.0 0.00 0.00 0.00 81 996.0
20260505035916 74 0 2.0 9.0 0.00 0.00 0.00 81 996.2
20260505035152 74 0 3.0 9.0 0.00 0.00 0.00 81 996.3
20260505035139 74 0 3.0 8.0 0.00 0.00 0.00 81 996.2
20260505034151 74 0 3.0 10.0 0.00 0.00 0.00 80 996.1
20260505033648 74 0 4.0 10.0 0.00 0.00 0.00 80 996.1
20260505033150 74 0 3.0 10.0 0.00 0.00 0.00 80 996.2
20260505032910 74 0 2.0 9.0 0.00 0.00 0.00 80 996.3
20260505032149 74 0 3.0 9.0 0.00 0.00 0.00 79 996.4
20260505031645 74 0 3.0 12.0 0.00 0.00 0.00 79 996.4
20260505031145 74 0 3.0 12.0 0.00 0.00 0.00 79 996.4
20260505030736 75 0 2.0 11.0 0.00 0.00 0.00 79 996.3
20260505025645 75 0 3.0 10.0 0.00 0.00 0.00 78 996.3
20260505025147 75 0 4.0 13.0 0.00 0.00 0.00 78 996.2
20260505024648 75 0 4.0 13.0 0.00 0.00 0.00 78 996.0
20260505024146 75 0 3.0 12.0 0.00 0.00 0.00 78 996.0
20260505023649 75 0 4.0 13.0 0.00 0.00 0.00 78 995.9
20260505023144 76 0 4.0 13.0 0.00 0.00 0.00 77 995.9
20260505022902 76 0 2.0 6.0 0.00 0.00 0.00 77 995.9
20260505022144 76 0 3.0 8.0 0.00 0.00 0.00 78 996.1
20260505021905 76 0 3.0 8.0 0.00 0.00 0.00 77 996.0
20260505021141 76 0 2.0 8.0 0.00 0.00 0.00 77 996.0
20260505020903 76 0 3.0 10.0 0.00 0.00 0.00 78 996.0
20260505020141 76 0 3.0 11.0 0.00 0.00 0.00 77 996.0
20260505015642 75 0 2.0 11.0 0.00 0.00 0.00 78 995.9
20260505015141 75 0 2.0 6.0 0.00 0.00 0.00 78 995.9
20260505014637 75 0 2.0 9.0 0.00 0.00 0.00 77 995.8
20260505014137 75 0 2.0 9.0 0.00 0.00 0.00 77 995.7
20260505014127 76 0 2.0 5.0 0.00 0.00 0.00 77 995.8
20260505013355 76 0 2.0 5.0 0.00 0.00 0.00 76 995.7
20260505012637 76 0 2.0 5.0 0.00 0.00 0.00 76 995.6
20260505012137 76 0 2.0 5.0 0.00 0.00 0.00 76 995.6
20260505011638 76 0 2.0 6.0 0.00 0.00 0.00 76 995.5
20260505011137 76 0 2.0 6.0 0.00 0.00 0.00 75 995.5
20260505010638 77 0 2.0 8.0 0.00 0.00 0.00 75 995.6
20260505010133 77 0 2.0 8.0 0.00 0.00 0.00 74 995.7
20260505005633 77 0 2.0 5.0 0.00 0.00 0.00 74 995.6
20260505005133 77 0 3.0 8.0 0.00 0.00 0.00 74 995.6
20260505004633 78 0 3.0 10.0 0.00 0.00 0.00 74 995.6
20260505004134 78 0 3.0 10.0 0.00 0.00 0.00 74 995.6
20260505003636 78 0 2.0 8.0 0.00 0.00 0.00 73 995.6
20260505003133 78 0 2.0 8.0 0.00 0.00 0.00 73 995.5
20260505002633 78 0 2.0 8.0 0.00 0.00 0.00 73 995.5
20260505002134 78 0 2.0 8.0 0.00 0.00 0.00 73 995.6
20260505001628 78 0 2.0 8.0 0.00 0.00 0.00 73 995.6
20260505001353 78 0 3.0 10.0 0.00 0.00 0.00 72 995.6
20260505000629 78 0 2.0 10.0 0.00 0.00 0.00 72 995.6
20260505000128 79 0 3.0 10.0 0.00 0.00 0.00 72 995.6
20260504235846 79 0 4.0 10.0 0.00 0.00 0.00 71 995.7
20260504235129 79 0 3.0 10.0 0.00 0.00 0.00 71 995.7
20260504234629 79 0 3.0 10.0 0.00 0.00 0.00 71 995.7
20260504234127 79 0 3.0 9.0 0.00 0.00 0.00 70 995.8
20260504233627 79 0 3.0 8.0 0.00 0.00 0.00 70 995.7
20260504233121 80 0 3.0 6.0 0.00 0.00 0.00 70 995.7
20260504232621 80 0 4.0 14.0 0.00 0.00 0.00 69 995.7
20260504232123 80 0 4.0 14.0 0.00 0.00 0.00 69 995.7
20260504231621 80 0 3.0 10.0 0.00 0.00 0.00 68 995.9
20260504231121 80 0 3.0 9.0 0.00 0.00 0.00 69 995.9
20260504230620 80 0 3.0 9.0 0.00 0.00 0.00 68 996.0
20260504230120 80 0 3.0 10.0 0.00 0.00 0.00 68 996.1
20260504225621 80 0 3.0 10.0 0.00 0.00 0.00 68 996.1
20260504225121 80 0 3.0 8.0 0.00 0.00 0.00 68 996.2
20260504224617 80 0 4.0 10.0 0.00 0.00 0.00 67 996.1
20260504224336 80 0 4.0 10.0 0.00 0.00 0.00 67 996.1
20260504223617 80 0 3.0 9.0 0.00 0.00 0.00 67 996.2
20260504223115 81 0 3.0 15.0 0.00 0.00 0.00 67 996.3
20260504222615 81 84 3.0 15.0 0.00 0.00 0.00 66 996.3
20260504222115 80 84 3.0 8.0 0.00 0.00 0.00 67 996.3
20260504221614 80 96 3.0 8.0 0.00 0.00 0.00 66 996.5
20260504221116 80 90 3.0 9.0 0.00 0.00 0.00 66 996.5
20260504220617 81 67 3.0 9.0 0.00 0.00 0.00 66 996.6
20260504220337 81 0 2.0 8.0 0.00 0.00 0.00 66 996.6
20260504215615 81 0 3.0 10.0 0.00 0.00 0.00 66 996.6
20260504215110 81 70 3.0 10.0 0.00 0.00 0.00 66 996.6
20260504214609 81 81 4.0 9.0 0.00 0.00 0.00 65 996.6
20260504214108 81 105 4.0 9.0 0.00 0.00 0.00 65 996.7
20260504213606 81 85 3.0 9.0 0.00 0.00 0.00 65 997.0
20260504213107 81 92 2.0 8.0 0.00 0.00 0.00 65 996.9
20260504212607 81 38 2.0 6.0 0.00 0.00 0.00 65 996.9
20260504212323 81 85 2.0 8.0 0.00 0.00 0.00 65 997.0
20260504211603 81 88 2.0 8.0 0.00 0.00 0.00 64 997.1
20260504211103 81 67 2.0 6.0 0.00 0.00 0.00 64 997.1
20260504210832 81 81 2.0 8.0 0.00 0.00 0.00 65 997.2
20260504210101 81 67 3.0 8.0 0.00 0.00 0.00 65 997.3
20260504205602 81 78 3.0 10.0 0.00 0.00 0.00 65 997.3
20260504205101 81 0 2.0 10.0 0.00 0.00 0.00 64 997.3
20260504204600 81 80 2.0 5.0 0.00 0.00 0.00 64 997.4
20260504204059 81 66 2.0 5.0 0.00 0.00 0.00 64 997.6
20260504203557 81 64 2.0 6.0 0.00 0.00 0.00 65 997.7
20260504203055 81 0 2.0 6.0 0.00 0.00 0.00 65 997.7
20260504202811 81 0 2.0 12.0 0.00 0.00 0.00 64 997.8
20260504202052 81 65 2.0 12.0 0.00 0.00 0.00 65 997.9
20260504201549 81 0 1.0 5.0 0.00 0.00 0.00 66 998.1
20260504201539 81 0 2.0 10.0 0.00 0.00 0.00 66 998.2
20260504200545 81 0 2.0 10.0 0.00 0.00 0.00 64 998.3
20260504200302 81 0 2.0 6.0 0.00 0.00 0.00 65 998.4
20260504195543 81 0 2.0 6.0 0.00 0.00 0.00 65 998.4
20260504195042 81 0 2.0 8.0 0.00 0.00 0.00 65 998.5
20260504194803 81 55 2.0 8.0 0.00 0.00 0.00 65 998.7
20260504194038 81 0 2.0 6.0 0.00 0.00 0.00 65 998.7
20260504193536 81 38 2.0 6.0 0.00 0.00 0.00 65 998.7
20260504193136 81 0 2.0 6.0 0.00 0.00 0.00 64 998.8
20260504192035 81 59 2.0 8.0 0.00 0.00 0.00 65 998.9
20260504191754 81 0 2.0 8.0 0.00 0.00 0.00 63 999.0
20260504191032 81 57 2.0 8.0 0.00 0.00 0.00 65 998.9
20260504190533 80 0 3.0 9.0 0.00 0.00 0.00 64 999.2
20260504190033 80 0 3.0 9.0 0.00 0.00 0.00 63 999.4
20260504185755 80 0 3.0 14.0 0.00 0.00 0.00 64 999.4
20260504185029 80 0 4.0 14.0 0.00 0.00 0.00 64 999.5
20260504184528 80 0 3.0 10.0 0.00 0.00 0.00 63 999.4
20260504184029 80 0 3.0 9.0 0.00 0.00 0.00 65 999.5
20260504183529 80 0 3.0 9.0 0.00 0.00 0.00 65 999.6
20260504183030 80 0 3.0 6.0 0.00 0.00 0.00 66 999.5
20260504182525 80 63 4.0 12.0 0.00 0.00 0.00 65 999.6
20260504182013 80 0 3.0 12.0 0.00 0.00 0.00 64 999.7
20260504181513 80 0 3.0 13.0 0.00 0.00 0.00 65 999.7
20260504181013 80 0 3.0 13.0 0.00 0.00 0.00 65 999.7
20260504180512 80 0 3.0 10.0 0.00 0.00 0.00 66 999.8
20260504180013 80 0 3.0 10.0 0.00 0.00 0.00 65 999.9
20260504175513 80 63 2.0 8.0 0.00 0.00 0.00 66 999.8
20260504175013 79 63 3.0 8.0 0.00 0.00 0.00 66 1000.0
20260504174513 79 59 3.0 10.0 0.00 0.00 0.00 66 1000.0
20260504174013 78 63 2.0 10.0 0.00 0.00 0.00 67 1000.1
20260504173513 78 65 2.0 9.0 0.00 0.00 0.00 67 1000.1
20260504173013 78 85 3.0 11.0 0.00 0.00 0.00 66 1000.2
20260504172512 78 59 4.0 11.0 0.00 0.00 0.00 65 1000.2
20260504172013 78 55 4.0 10.0 0.00 0.00 0.00 65 1000.3
20260504171511 79 0 3.0 11.0 0.00 0.00 0.00 66 1000.5
20260504171012 78 0 4.0 11.0 0.00 0.00 0.00 66 1000.6
20260504170514 78 0 3.0 10.0 0.00 0.00 0.00 67 1000.5
20260504150959 73 0 2.0 14.0 0.00 0.00 0.00 73 1001.6
20260504150501 73 0 2.0 10.0 0.00 0.00 0.00 75 1001.5
20260504141220 68 0 1.0 4.0 0.00 0.00 0.00 80 1001.6
20260504140502 67 0 1.0 4.0 0.00 0.00 0.00 81 1001.6
20260504130714 60 0 0.0 2.0 0.00 0.00 0.00 90 1001.3
20260504130225 59 0 0.0 0.0 0.00 0.00 0.00 91 1001.4